User: anonymous
Location: Oshawa
(43.9000°N, 78.8670°W)
Time: 03:01:59
(UTC-04:00)
Language:

SPOT 5 - Orbit

View from above orbital plane
View from above orbital plane
View from above satellite
View from above satellite

Ground track
Ground track

The orbit data is extracted from the following two-line orbital elements,

1 27421U 02021A   14210.77859041  .00000171  00000-0  10000-3 0  7856
2 27421 098.5590 272.5526 0001502 084.4642 053.1406 14.20102570634362
Epoch (UTC): 29 July 2014 18:41:10
Eccentricity: 0.0001502
inclination: 98.5590°
perigee height: 824 km
apogee height: 826 km
right ascension of ascending node: 272.5526°
argument of perigee: 84.4642°
revolutions per day: 14.20102570
mean anomaly at epoch: 53.1406°
orbit number at epoch: 63436

The dashed part of the orbit path shows where the satellite is in the earth's shadow,  

DLR